period_start,C,m1,H,J0,J1,J2,J3,J4,J5,JA,JB,JC,JD,JJ,JK,JN,#
2017-07-10 00:03:50,-0.00,0.55,0.00,23.22,27.50,30.39,13.91,44.34,1018.08,2031.96,3287.98,2941.00,3365.99,600.25,596.83,55.33,0000 0000 0000 0000 000000
2017-07-10 00:08:52,0.00,0.55,0.00,23.25,27.50,30.40,13.90,44.26,1018.06,2031.95,3287.91,2941.00,3365.93,600.05,596.51,55.38,0000 0000 0000 0000 000000
2017-07-10 00:13:53,0.05,0.56,0.00,23.27,27.51,30.41,13.91,44.21,1017.92,2031.94,3287.21,2940.37,3365.21,599.92,596.21,55.43,0000 0000 0000 0000 000000
2017-07-10 00:18:54,-0.01,0.56,0.00,23.28,27.52,30.42,13.91,44.27,1017.79,2031.87,3287.00,2940.03,3365.00,600.10,596.24,55.48,0000 0000 0000 0000 000000
2017-07-10 00:23:56,-0.01,0.56,0.00,23.31,27.53,30.41,13.91,44.27,1017.78,2031.68,3286.99,2940.00,3364.98,600.30,596.48,55.53,0000 0000 0000 0000 000000
2017-07-10 00:28:57,-0.03,0.55,0.00,23.33,27.55,30.42,13.90,44.33,1017.60,2031.34,3286.89,2940.00,3364.65,600.23,596.18,55.58,0000 0000 0000 0000 000000
2017-07-10 00:33:58,0.02,0.55,0.00,23.36,27.56,30.44,13.94,44.58,1017.50,2031.24,3286.37,2939.98,3364.04,599.89,595.73,55.63,0000 0000 0000 0000 000000
2017-07-10 00:38:59,0.02,0.56,0.00,23.38,27.57,30.45,13.88,44.68,1017.10,2031.13,3286.01,2939.21,3363.98,599.93,595.39,55.68,0000 0000 0000 0000 000000
2017-07-10 00:44:01,0.02,0.56,0.00,23.41,27.58,30.46,13.92,44.81,1016.85,2031.04,3285.49,2939.00,3363.16,600.10,595.56,55.73,0000 0000 0000 0000 000000
2017-07-10 00:49:02,0.00,0.56,0.00,23.43,27.60,30.48,13.81,44.44,1017.08,2031.01,3285.02,2938.90,3363.00,599.82,595.23,55.78,0000 0000 0000 0000 000000
2017-07-10 00:54:03,0.01,0.56,0.00,23.45,27.61,30.50,13.93,44.54,1017.14,2031.01,3285.00,2938.47,3362.98,600.32,595.75,55.83,0000 0000 0000 0000 000000
2017-07-10 00:59:04,0.01,0.56,0.00,23.47,27.62,30.48,13.84,44.26,1017.42,2031.00,3285.00,2938.13,3362.91,599.59,595.32,55.88,0000 0000 0000 0000 000000
2017-07-10 01:04:06,0.01,0.56,0.00,23.50,27.64,30.49,13.96,44.38,1017.52,2031.00,3284.91,2938.01,3362.30,600.56,596.12,55.93,0000 0000 0000 0000 000000
2017-07-10 01:09:07,0.00,0.56,0.00,23.53,27.65,30.48,13.82,44.15,1017.57,2031.00,3284.81,2938.00,3362.10,599.78,595.31,55.98,0000 0000 0000 0000 000000
2017-07-10 01:14:09,0.00,0.56,0.00,23.56,27.67,30.49,13.94,44.42,1017.49,2031.00,3284.25,2938.00,3362.00,600.29,595.71,56.03,0000 0000 0000 0000 000000
2017-07-10 01:19:10,-0.00,0.56,0.00,23.60,27.69,30.52,13.92,44.21,1017.25,2030.96,3284.02,2937.98,3362.00,599.95,595.10,56.08,0000 0000 0000 0000 000000
2017-07-10 01:24:12,0.00,0.56,0.00,23.63,27.71,30.51,13.85,44.33,1017.22,2030.98,3284.00,2937.92,3361.97,600.10,595.20,56.13,0000 0000 0000 0000 000000
2017-07-10 01:29:13,0.03,0.56,0.00,23.66,27.72,30.51,13.90,44.30,1017.44,2030.95,3283.96,2937.35,3361.47,600.44,595.71,56.18,0000 0000 0000 0000 000000
2017-07-10 01:34:14,-0.00,0.56,0.00,23.68,27.75,30.50,13.88,44.14,1017.17,2030.86,3283.77,2937.04,3361.06,599.81,594.84,56.23,0000 0000 0000 0000 000000
2017-07-10 01:39:15,-0.01,0.56,0.00,23.72,27.77,30.49,13.91,44.15,1017.11,2030.63,3283.14,2937.00,3361.00,600.30,595.05,56.28,0000 0000 0000 0000 000000
2017-07-10 01:44:17,-0.02,0.56,0.00,23.74,27.80,30.53,13.81,44.13,1017.11,2030.33,3283.02,2937.00,3360.99,599.45,594.28,56.34,0000 0000 0000 0000 000000
2017-07-10 01:49:18,-0.00,0.56,0.00,23.78,27.82,30.55,13.88,44.24,1017.04,2030.09,3282.99,2936.93,3360.70,599.85,594.56,56.39,0000 0000 0000 0000 000000
2017-07-10 01:54:19,0.03,0.56,0.00,23.81,27.85,30.55,13.88,44.21,1017.05,2030.02,3282.74,2936.39,3360.06,599.83,594.42,56.44,0000 0000 0000 0000 000000
2017-07-10 01:59:20,0.01,0.56,0.00,23.85,27.87,30.57,13.82,44.09,1017.04,2030.00,3282.15,2936.02,3360.00,599.84,594.45,56.49,0000 0000 0000 0000 000000
2017-07-10 02:04:21,0.00,0.56,0.00,23.89,27.90,30.60,13.82,44.04,1016.99,2030.00,3282.01,2936.00,3359.95,600.12,594.48,56.54,0000 0000 0000 0000 000000
2017-07-10 02:09:22,0.01,0.56,0.00,23.92,27.92,30.60,13.85,44.13,1016.88,2029.99,3281.99,2936.00,3359.46,599.64,593.97,56.59,0000 0000 0000 0000 000000
2017-07-10 02:14:23,0.01,0.56,0.00,23.96,27.95,30.62,13.84,44.11,1016.67,2029.98,3281.86,2935.85,3359.02,599.88,594.14,56.64,0000 0000 0000 0000 000000
2017-07-10 02:19:25,0.02,0.56,0.00,24.00,27.98,30.64,13.89,44.26,1016.64,2029.96,3281.22,2935.25,3359.00,600.48,594.52,56.69,0000 0000 0000 0000 000000
2017-07-10 02:24:26,-0.00,0.56,0.00,24.03,28.01,30.65,13.87,44.17,1016.62,2029.90,3281.00,2935.01,3358.93,600.60,594.63,56.74,0000 0000 0000 0000 000000
2017-07-10 02:29:27,-0.02,0.56,0.00,24.06,28.04,30.65,13.79,44.38,1016.62,2029.63,3280.98,2934.99,3358.29,599.61,593.48,56.79,0000 0000 0000 0000 000000
2017-07-10 02:34:29,-0.02,0.56,0.00,24.09,28.06,30.68,13.82,44.17,1016.62,2029.13,3280.51,2934.79,3358.02,600.01,593.83,56.84,0000 0000 0000 0000 000000
2017-07-10 02:39:30,0.02,0.56,0.00,24.13,28.09,30.70,13.83,44.23,1016.62,2029.01,3280.02,2934.09,3357.90,599.89,593.69,56.89,0000 0000 0000 0000 000000
2017-07-10 02:44:31,0.01,0.56,0.00,24.16,28.12,30.68,13.91,44.34,1016.53,2029.00,3279.98,2934.00,3357.27,600.31,593.80,56.94,0000 0000 0000 0000 000000
2017-07-10 02:49:32,0.00,0.56,0.00,24.21,28.15,30.74,13.82,44.20,1016.31,2029.00,3279.60,2933.99,3357.00,599.83,593.21,56.99,0000 0000 0000 0000 000000
2017-07-10 02:54:34,0.02,0.56,0.00,24.25,28.18,30.76,13.86,44.13,1016.48,2028.98,3279.07,2933.65,3356.94,600.32,593.78,57.04,0000 0000 0000 0000 000000
2017-07-10 02:59:35,0.01,0.57,0.00,24.28,28.21,30.78,13.90,44.14,1016.38,2028.83,3278.99,2933.04,3356.21,600.47,593.72,57.09,0000 0000 0000 0000 000000
2017-07-10 03:04:37,-0.03,0.56,0.00,24.32,28.24,30.80,13.92,44.10,1016.41,2028.38,3278.59,2933.00,3356.00,600.53,593.80,57.14,0000 0000 0000 0000 000000
2017-07-10 03:09:38,-0.01,0.56,0.00,24.35,28.27,30.83,13.82,44.17,1016.52,2028.14,3278.08,2932.95,3355.96,600.58,593.88,57.19,0000 0000 0000 0000 000000
2017-07-10 03:14:40,0.02,0.56,0.00,24.38,28.30,30.87,13.84,44.09,1016.27,2028.03,3278.00,2932.44,3355.40,600.15,593.06,57.24,0000 0000 0000 0000 000000
2017-07-10 03:19:41,0.01,0.56,0.00,24.42,28.34,30.90,13.78,44.03,1016.19,2028.02,3277.89,2932.05,3355.02,599.97,592.84,57.29,0000 0000 0000 0000 000000
2017-07-10 03:24:42,0.01,0.57,0.00,24.46,28.37,30.92,13.82,44.21,1016.13,2028.00,3277.24,2932.00,3354.99,599.98,592.81,57.34,0000 0000 0000 0000 000000
2017-07-10 03:29:44,0.02,0.57,0.00,24.49,28.40,30.96,13.83,44.13,1016.13,2028.00,3277.00,2931.84,3354.46,600.18,593.01,57.40,0000 0000 0000 0000 000000
2017-07-10 03:34:45,0.03,0.57,0.00,24.53,28.44,30.99,13.81,44.18,1016.13,2027.98,3276.47,2931.12,3354.01,599.76,592.47,57.45,0000 0000 0000 0000 000000
2017-07-10 03:39:46,0.01,0.57,0.00,24.57,28.47,31.02,13.85,44.31,1015.91,2027.98,3276.04,2930.99,3353.72,600.40,592.87,57.50,0000 0000 0000 0000 000000
2017-07-10 03:44:47,0.03,0.57,0.00,24.61,28.51,31.07,13.82,44.38,1015.75,2027.93,3275.44,2930.46,3353.05,600.13,592.39,57.55,0000 0000 0000 0000 000000
2017-07-10 03:49:49,-0.01,0.57,0.00,24.66,28.54,31.09,13.78,44.08,1015.73,2027.58,3274.99,2930.00,3352.27,599.49,591.71,57.60,0000 0000 0000 0000 000000
2017-07-10 03:54:50,0.01,0.57,0.00,24.69,28.58,31.13,13.80,44.15,1015.65,2027.26,3274.38,2929.54,3351.97,600.35,592.32,57.65,0000 0000 0000 0000 000000
2017-07-10 03:59:51,0.01,0.57,0.00,24.73,28.61,31.16,13.77,44.22,1015.64,2027.03,3273.91,2929.01,3351.21,599.91,591.89,57.70,0000 0000 0000 0000 000000
2017-07-10 04:04:52,0.03,0.57,0.00,24.76,28.65,31.21,13.85,44.13,1015.64,2027.00,3273.14,2928.57,3350.85,600.26,592.12,57.75,0000 0000 0000 0000 000000
2017-07-10 04:09:53,0.02,0.57,0.00,24.78,28.68,31.25,13.81,44.21,1015.58,2027.00,3272.80,2928.03,3350.07,600.30,592.18,57.80,0000 0000 0000 0000 000000
2017-07-10 04:14:54,0.02,0.57,0.00,24.81,28.72,31.27,13.76,44.17,1015.54,2026.99,3272.07,2927.82,3349.71,599.96,591.72,57.85,0000 0000 0000 0000 000000
2017-07-10 04:19:56,0.03,0.58,0.00,24.85,28.76,31.31,13.80,44.10,1015.26,2026.97,3271.78,2927.08,3349.05,600.22,591.68,57.90,0000 0000 0000 0000 000000
2017-07-10 04:24:57,-0.01,0.58,0.00,24.87,28.79,31.35,13.86,44.20,1015.21,2026.73,3271.05,2926.85,3348.59,600.25,591.78,57.95,0000 0000 0000 0000 000000
2017-07-10 04:29:58,-0.01,0.58,0.00,24.89,28.83,31.38,13.78,44.18,1015.17,2026.27,3270.77,2926.09,3348.01,599.95,591.39,58.00,0000 0000 0000 0000 000000
2017-07-10 04:34:59,0.01,0.58,0.00,24.93,28.86,31.42,13.83,44.12,1015.15,2026.02,3270.06,2925.96,3347.50,600.22,591.55,58.05,0000 0000 0000 0000 000000
2017-07-10 04:40:01,0.03,0.58,0.00,24.96,28.90,31.46,13.75,44.12,1015.15,2026.00,3269.55,2925.21,3346.93,599.91,591.24,58.10,0000 0000 0000 0000 000000
2017-07-10 04:45:02,0.01,0.58,0.00,24.99,28.93,31.49,13.87,44.21,1015.15,2025.99,3268.98,2924.95,3346.15,600.15,591.42,58.15,0000 0000 0000 0000 000000
2017-07-10 04:50:03,0.04,0.58,0.00,25.02,28.97,31.53,13.73,44.10,1015.14,2025.97,3268.46,2924.30,3345.82,599.33,590.62,58.20,0000 0000 0000 0000 000000
2017-07-10 04:55:05,0.00,0.58,0.00,25.06,29.01,31.56,13.72,44.06,1015.15,2025.90,3267.99,2923.99,3345.06,600.11,591.15,58.25,0000 0000 0000 0000 000000
2017-07-10 05:00:06,-0.02,0.58,0.00,25.09,29.04,31.60,13.74,44.11,1015.15,2025.38,3267.47,2923.55,3344.78,599.48,590.71,58.30,0000 0000 0000 0000 000000
2017-07-10 05:05:07,0.00,0.58,0.00,25.12,29.08,31.63,13.74,44.03,1015.11,2025.09,3266.98,2923.01,3344.05,599.87,590.78,58.35,0000 0000 0000 0000 000000
2017-07-10 05:10:08,0.03,0.58,0.00,25.15,29.11,31.67,13.83,44.25,1015.08,2025.01,3266.27,2922.64,3343.59,600.47,591.33,58.41,0000 0000 0000 0000 000000
2017-07-10 05:15:10,0.02,0.58,0.00,25.19,29.14,31.70,13.74,43.95,1014.94,2025.00,3265.81,2922.02,3343.01,599.97,590.75,58.46,0000 0000 0000 0000 000000
2017-07-10 05:20:11,0.04,0.59,0.00,25.21,29.18,31.74,13.81,44.11,1014.73,2025.00,3265.04,2921.58,3342.26,600.03,590.55,58.51,0000 0000 0000 0000 000000
2017-07-10 05:25:13,0.02,0.59,0.00,25.22,29.21,31.79,13.81,44.00,1014.67,2025.00,3264.39,2921.01,3341.75,600.15,590.67,58.56,0000 0000 0000 0000 000000
2017-07-10 05:30:14,0.02,0.59,0.00,25.22,29.23,31.80,13.77,43.94,1014.67,2024.94,3263.95,2920.46,3341.03,599.98,590.55,58.61,0000 0000 0000 0000 000000
2017-07-10 05:35:15,0.03,0.59,0.00,25.22,29.26,31.83,13.75,43.99,1014.66,2024.88,3263.16,2920.01,3340.34,599.86,590.25,58.66,0000 0000 0000 0000 000000
2017-07-10 05:40:16,-0.01,0.59,0.00,25.23,29.28,31.84,13.71,43.82,1014.66,2024.61,3262.92,2919.55,3339.87,599.81,590.25,58.71,0000 0000 0000 0000 000000
2017-07-10 05:45:17,-0.01,0.59,0.00,25.32,29.31,31.83,13.74,43.92,1014.63,2024.16,3262.10,2918.96,3339.06,600.27,590.50,58.76,0000 0000 0000 0000 000000
2017-07-10 05:50:19,0.04,0.59,0.00,25.42,29.34,31.81,13.76,44.05,1014.53,2024.03,3261.63,2918.15,3338.28,600.16,590.21,58.81,0000 0000 0000 0000 000000
2017-07-10 05:55:20,0.02,0.59,0.00,25.51,29.37,31.81,13.73,43.97,1014.51,2024.00,3261.01,2917.81,3337.73,600.14,589.90,58.86,0000 0000 0000 0000 000000
2017-07-10 06:00:22,0.04,0.60,0.00,25.59,29.41,31.83,13.82,44.12,1014.29,2024.00,3260.23,2917.05,3336.98,600.32,589.83,58.91,0000 0000 0000 0000 000000
2017-07-10 06:05:23,0.04,0.60,0.00,25.66,29.44,31.91,13.72,43.97,1014.37,2023.99,3259.74,2916.54,3336.18,599.95,589.28,58.96,0000 0000 0000 0000 000000
2017-07-10 06:10:25,0.02,0.60,0.00,25.67,29.48,32.04,13.67,43.96,1014.19,2023.93,3258.98,2915.96,3335.45,599.83,589.16,59.01,0000 0000 0000 0000 000000
2017-07-10 06:15:26,0.00,0.60,0.00,25.66,29.51,32.26,13.75,44.07,1014.21,2023.51,3258.12,2915.13,3334.73,600.09,589.39,59.06,0000 0000 0000 0000 000000
2017-07-10 06:20:27,0.00,0.60,0.00,25.64,29.55,32.44,13.75,43.98,1014.18,2023.13,3257.53,2914.77,3334.00,599.94,589.29,59.11,0000 0000 0000 0000 000000
2017-07-10 06:25:28,0.02,0.60,0.00,25.62,29.58,32.55,13.76,44.13,1014.11,2023.01,3256.94,2914.04,3333.21,599.88,589.26,59.16,0000 0000 0000 0000 000000
2017-07-10 06:30:30,0.05,0.60,0.00,25.60,29.61,32.59,13.79,44.11,1014.07,2023.00,3256.08,2913.30,3332.33,600.05,589.45,59.21,0000 0000 0000 0000 000000
2017-07-10 06:35:31,0.03,0.61,0.00,25.60,29.64,32.60,13.77,44.00,1014.15,2023.00,3255.26,2912.80,3331.58,600.12,589.54,59.26,0000 0000 0000 0000 000000
2017-07-10 06:40:32,0.03,0.61,0.00,25.62,29.66,32.60,13.79,43.91,1014.04,2022.99,3254.67,2912.05,3330.97,600.31,589.66,59.32,0000 0000 0000 0000 000000
2017-07-10 06:45:33,0.03,0.61,0.00,25.64,29.69,32.61,13.75,43.87,1014.04,2022.92,3253.91,2911.64,3330.15,600.05,589.38,59.37,0000 0000 0000 0000 000000
2017-07-10 06:50:34,-0.01,0.61,0.00,25.67,29.71,32.58,13.72,43.98,1013.75,2022.53,3253.07,2910.99,3329.41,599.89,588.94,59.42,0000 0000 0000 0000 000000
2017-07-10 06:55:36,0.02,0.61,0.00,25.70,29.74,32.57,13.84,44.08,1013.71,2022.15,3252.54,2910.18,3328.83,600.57,589.54,59.47,0000 0000 0000 0000 000000
2017-07-10 07:00:37,0.01,0.61,0.00,25.74,29.77,32.57,13.71,44.04,1013.70,2022.05,3251.95,2909.82,3328.04,600.01,588.90,59.52,0000 0000 0000 0000 000000
2017-07-10 07:05:38,0.05,0.61,0.00,25.74,29.79,32.56,13.70,43.89,1013.69,2022.01,3250.99,2908.89,3327.07,599.67,588.55,59.57,0000 0000 0000 0000 000000
2017-07-10 07:10:40,0.05,0.62,0.00,25.75,29.81,32.57,13.77,43.91,1013.67,2022.00,3250.10,2908.07,3326.13,600.20,589.04,59.62,0000 0000 0000 0000 000000
2017-07-10 07:15:41,0.04,0.62,0.00,25.75,29.83,32.54,13.76,43.88,1013.67,2022.00,3249.48,2907.62,3325.55,599.96,588.81,59.67,0000 0000 0000 0000 000000
2017-07-10 07:20:42,0.02,0.62,0.00,25.76,29.86,32.50,13.65,43.74,1013.47,2021.99,3248.92,2907.00,3324.93,599.59,588.29,59.72,0000 0000 0000 0000 000000
2017-07-10 07:25:43,0.04,0.62,0.00,25.77,29.88,32.50,13.76,43.85,1013.39,2021.99,3248.16,2906.53,3324.16,599.97,588.61,59.77,0000 0000 0000 0000 000000
2017-07-10 07:30:45,0.01,0.62,0.00,25.77,29.90,32.49,13.69,43.77,1013.30,2021.98,3247.92,2906.02,3323.86,599.95,588.47,59.82,0000 0000 0000 0000 000000
2017-07-10 07:35:46,0.03,0.62,0.00,25.77,29.91,32.50,13.71,43.74,1013.29,2021.97,3247.24,2905.73,3323.10,600.02,588.60,59.87,0000 0000 0000 0000 000000
2017-07-10 07:40:48,0.03,0.63,0.00,25.72,29.92,32.58,13.79,43.86,1013.24,2021.96,3246.71,2905.04,3322.65,600.47,589.05,59.92,0000 0000 0000 0000 000000
2017-07-10 07:45:49,0.01,0.63,0.00,25.63,29.92,32.66,13.73,43.70,1013.22,2021.95,3246.02,2904.83,3322.02,599.92,588.73,59.97,0000 0000 0000 0000 000000
2017-07-10 07:50:51,0.04,0.63,0.00,25.61,29.92,32.67,13.70,43.75,1013.20,2021.90,3245.40,2904.09,3321.42,600.05,588.89,60.02,0000 0000 0000 0000 000000
2017-07-10 07:55:52,0.01,0.63,0.00,25.60,29.92,32.64,13.84,43.68,1013.20,2021.94,3244.98,2903.98,3320.98,600.47,589.41,60.07,0000 0000 0000 0000 000000
2017-07-10 08:00:53,0.10,0.34,0.00,25.62,29.92,32.61,12.12,39.27,1013.20,2021.99,3381.94,2985.18,3420.38,531.30,521.73,0.02,0000 0000 0000 0000 000002
2017-07-10 08:05:54,0.12,0.00,0.00,25.62,29.91,32.59,13.74,44.65,1013.20,2022.05,3534.01,3077.00,3533.92,599.79,588.56,0.03,0000 0000 0000 0000 000000
2017-07-10 08:10:55,0.11,0.00,0.00,25.63,29.90,32.52,13.70,44.65,1013.14,2022.07,3532.42,3076.12,3532.61,599.87,588.66,0.08,0000 0000 0000 0000 000000
2017-07-10 08:15:57,0.09,0.00,0.00,25.66,29.88,32.44,13.75,44.61,1013.00,2022.07,3531.41,3075.80,3531.66,599.84,588.49,0.13,0000 0000 0000 0000 000000
2017-07-10 08:20:58,0.08,0.00,0.00,25.67,29.87,32.37,13.72,44.46,1012.86,2022.20,3530.86,3075.07,3530.96,600.16,588.73,0.18,0000 0000 0000 0000 000000
2017-07-10 08:26:00,0.05,0.00,0.00,25.69,29.85,32.31,13.69,44.38,1012.74,2022.27,3530.05,3074.92,3530.10,599.88,588.39,0.23,0000 0000 0000 0000 000000
2017-07-10 08:31:01,0.07,0.01,0.00,25.72,29.84,32.27,13.71,44.35,1012.72,2022.64,3529.45,3074.26,3529.47,599.98,588.28,0.28,0000 0000 0000 0000 000000
2017-07-10 08:36:02,0.03,0.01,0.00,25.75,29.82,32.22,13.69,44.37,1012.72,2022.87,3528.89,3073.99,3528.90,599.78,588.09,0.33,0000 0000 0000 0000 000000
2017-07-10 08:41:03,0.04,0.01,0.00,25.78,29.81,32.19,13.71,44.37,1012.71,2022.95,3528.14,3073.66,3528.12,599.80,587.95,0.38,0000 0000 0000 0000 000000
2017-07-10 08:46:04,0.02,0.01,0.00,25.81,29.80,32.17,13.69,44.48,1012.71,2022.97,3527.87,3073.04,3527.73,600.15,588.41,0.43,0000 0000 0000 0000 000000
2017-07-10 08:51:06,0.02,0.02,0.00,25.84,29.79,32.16,13.70,44.46,1012.67,2022.97,3527.07,3072.90,3527.02,600.29,588.37,0.48,0000 0000 0000 0000 000000
2017-07-10 08:56:07,0.04,0.02,0.00,25.88,29.77,32.14,13.69,44.39,1012.42,2022.98,3526.61,3072.15,3526.31,600.03,587.94,0.54,0000 0000 0000 0000 000000
2017-07-10 09:01:08,0.00,0.02,0.00,25.92,29.77,32.12,13.70,44.23,1012.28,2022.99,3526.01,3071.98,3525.93,600.04,587.70,0.59,0000 0000 0000 0000 000000
2017-07-10 09:06:09,0.04,0.02,0.00,25.96,29.77,32.11,13.70,44.34,1012.24,2022.98,3525.35,3071.38,3525.10,600.14,587.75,0.64,0000 0000 0000 0000 000000
2017-07-10 09:11:10,0.02,0.02,0.00,25.99,29.77,32.10,13.63,44.36,1012.09,2022.99,3524.75,3070.97,3524.33,599.89,587.40,0.69,0000 0000 0000 0000 000000
2017-07-10 09:16:12,0.04,0.02,0.00,26.03,29.77,32.09,13.61,44.34,1012.04,2022.99,3523.98,3070.17,3523.54,599.74,587.11,0.74,0000 0000 0000 0000 000000
2017-07-10 09:21:13,0.02,0.03,0.00,26.06,29.77,32.08,13.65,44.38,1011.82,2022.99,3523.18,3069.91,3522.90,599.99,587.14,0.79,0000 0000 0000 0000 000000
2017-07-10 09:26:14,0.08,0.03,0.00,26.10,29.77,32.09,13.65,44.41,1011.77,2022.98,3522.39,3068.57,3521.55,599.88,586.86,0.84,0000 0000 0000 0000 000000
2017-07-10 09:31:15,0.03,0.03,0.00,26.13,29.77,32.09,13.73,44.51,1011.73,2022.96,3521.19,3068.00,3520.46,600.50,587.44,0.89,0000 0000 0000 0000 000000
2017-07-10 09:36:17,0.02,0.03,0.00,26.16,29.77,32.09,13.58,44.32,1011.73,2022.99,3520.89,3067.66,3520.01,600.02,586.88,0.94,0000 0000 0000 0000 000000
2017-07-10 09:41:18,0.03,0.03,0.00,26.19,29.78,32.11,13.56,44.27,1011.74,2022.99,3520.10,3067.02,3519.54,599.77,586.58,0.99,0000 0000 0000 0000 000000
2017-07-10 09:46:19,0.01,0.04,0.00,26.22,29.80,32.11,13.65,44.20,1011.67,2022.99,3519.92,3066.82,3519.00,599.93,586.67,1.04,0000 0000 0000 0000 000000
2017-07-10 09:51:21,0.04,0.04,0.00,26.25,29.80,32.13,13.66,44.17,1011.66,2022.98,3519.12,3066.09,3518.41,600.08,586.74,1.09,0000 0000 0000 0000 000000
2017-07-10 09:56:22,0.01,0.04,0.00,26.29,29.82,32.14,13.69,44.20,1011.69,2022.96,3518.77,3065.91,3517.91,600.30,586.89,1.14,0000 0000 0000 0000 000000
2017-07-10 10:01:23,0.04,0.04,0.00,26.33,29.82,32.16,13.68,44.21,1011.61,2022.92,3518.07,3065.18,3517.10,599.88,586.33,1.19,0000 0000 0000 0000 000000
2017-07-10 10:06:25,0.00,0.04,0.00,26.37,29.85,32.17,13.69,44.31,1011.30,2022.94,3517.79,3064.99,3516.75,599.94,586.19,1.24,0000 0000 0000 0000 000000
2017-07-10 10:11:26,0.02,0.04,0.00,26.40,29.86,32.20,13.57,44.14,1011.32,2022.78,3517.06,3064.41,3516.05,599.90,586.10,1.29,0000 0000 0000 0000 000000
2017-07-10 10:16:27,0.01,0.04,0.00,26.42,29.88,32.22,13.60,44.30,1011.38,2022.55,3516.58,3064.01,3515.49,599.77,586.03,1.34,0000 0000 0000 0000 000000
2017-07-10 10:21:29,-0.01,0.04,0.00,26.45,29.90,32.24,13.61,44.13,1011.46,2022.26,3515.98,3063.61,3514.93,600.16,586.32,1.39,0000 0000 0000 0000 000000
2017-07-10 10:26:30,0.02,0.04,0.00,26.48,29.92,32.27,13.66,44.11,1011.62,2022.07,3515.23,3063.01,3514.11,599.91,586.19,1.44,0000 0000 0000 0000 000000
2017-07-10 10:31:31,0.03,0.04,0.00,26.52,29.94,32.29,13.57,44.18,1011.62,2022.03,3514.81,3062.55,3513.63,599.78,585.94,1.49,0000 0000 0000 0000 000000
2017-07-10 10:36:33,0.02,0.05,0.00,26.57,29.96,32.31,13.60,44.29,1011.29,2022.00,3514.05,3062.01,3512.93,599.77,585.73,1.54,0000 0000 0000 0000 000000
2017-07-10 10:41:34,0.04,0.05,0.00,26.62,29.99,32.33,13.61,44.16,1011.25,2022.00,3513.44,3061.44,3512.11,600.25,586.12,1.59,0000 0000 0000 0000 000000
2017-07-10 10:46:35,0.01,0.05,0.00,26.65,30.01,32.36,13.65,44.30,1011.23,2022.00,3512.90,3060.95,3511.78,600.21,586.02,1.64,0000 0000 0000 0000 000000
2017-07-10 10:51:36,0.05,0.05,0.00,26.67,30.04,32.40,13.60,44.14,1011.25,2022.00,3512.05,3060.10,3510.77,599.79,585.40,1.69,0000 0000 0000 0000 000000
2017-07-10 10:56:38,0.03,0.05,0.00,26.68,30.06,32.43,13.64,44.14,1011.20,2021.99,3511.33,3059.79,3510.00,600.24,585.82,1.74,0000 0000 0000 0000 000000
2017-07-10 11:01:39,0.03,0.05,0.00,26.70,30.09,32.47,13.59,44.10,1010.98,2021.92,3510.67,3059.05,3509.16,600.05,585.43,1.79,0000 0000 0000 0000 000000
2017-07-10 11:06:40,0.00,0.06,0.00,26.70,30.12,32.51,13.57,44.38,1011.00,2021.55,3510.01,3058.43,3508.42,599.98,585.42,1.84,0000 0000 0000 0000 000000
2017-07-10 11:11:42,0.01,0.06,0.00,26.71,30.15,32.53,13.61,44.19,1011.18,2021.38,3509.41,3058.01,3507.98,600.20,585.71,1.89,0000 0000 0000 0000 000000
2017-07-10 11:16:43,0.01,0.06,0.00,26.72,30.17,32.56,13.61,44.17,1011.21,2021.12,3508.88,3057.58,3507.27,599.92,585.49,1.94,0000 0000 0000 0000 000000
2017-07-10 11:21:44,0.01,0.06,0.00,26.73,30.20,32.58,13.60,44.27,1010.79,2021.04,3508.11,3057.01,3506.80,599.78,585.15,1.99,0000 0000 0000 0000 000000
2017-07-10 11:26:45,0.03,0.06,0.00,26.75,30.22,32.61,13.65,44.24,1010.78,2021.00,3507.69,3056.67,3506.03,600.04,585.23,2.04,0000 0000 0000 0000 000000
2017-07-10 11:31:47,0.02,0.06,0.00,26.78,30.25,32.64,13.62,44.22,1010.77,2021.00,3506.97,3056.02,3505.28,600.07,585.26,2.09,0000 0000 0000 0000 000000
2017-07-10 11:36:48,0.02,0.06,0.00,26.81,30.27,32.66,13.69,44.09,1010.79,2021.00,3506.24,3055.78,3504.86,600.34,585.43,2.14,0000 0000 0000 0000 000000
2017-07-10 11:41:50,0.03,0.06,0.00,26.83,30.30,32.68,13.64,44.08,1010.93,2020.99,3505.92,3055.05,3504.06,600.02,585.06,2.19,0000 0000 0000 0000 000000
2017-07-10 11:46:51,0.03,0.06,0.00,26.85,30.32,32.70,13.60,44.14,1010.77,2020.97,3505.11,3054.75,3503.57,599.88,584.89,2.24,0000 0000 0000 0000 000000
2017-07-10 11:51:52,0.01,0.07,0.00,26.86,30.35,32.73,13.63,44.24,1010.76,2020.83,3504.85,3054.05,3503.01,599.82,584.85,2.29,0000 0000 0000 0000 000000
2017-07-10 11:56:54,-0.02,0.07,0.00,26.86,30.37,32.75,13.68,44.15,1010.67,2020.43,3504.07,3053.92,3502.35,600.14,585.10,2.34,0000 0000 0000 0000 000000
2017-07-10 12:01:55,0.01,0.07,0.00,26.86,30.40,32.78,13.59,44.22,1010.50,2020.12,3503.63,3053.14,3501.94,600.11,584.82,2.39,0000 0000 0000 0000 000000
2017-07-10 12:06:57,0.02,0.07,0.00,26.85,30.41,32.80,13.58,44.12,1010.49,2020.05,3503.03,3052.98,3501.14,600.08,584.91,2.44,0000 0000 0000 0000 000000
2017-07-10 12:11:58,0.03,0.07,0.00,26.86,30.44,32.83,13.58,43.98,1010.75,2020.02,3502.42,3052.38,3500.77,599.97,584.92,2.49,0000 0000 0000 0000 000000
2017-07-10 12:16:59,0.01,0.07,0.00,26.87,30.46,32.85,13.62,44.03,1010.75,2020.00,3501.95,3052.00,3500.03,600.08,585.03,2.54,0000 0000 0000 0000 000000
2017-07-10 12:22:00,0.04,0.07,0.00,26.87,30.48,32.88,13.69,44.04,1010.56,2020.00,3501.14,3051.52,3499.53,599.88,584.80,2.59,0000 0000 0000 0000 000000
2017-07-10 12:27:01,0.01,0.07,0.00,26.87,30.50,32.89,13.62,44.03,1010.33,2019.99,3500.84,3051.02,3499.00,599.97,584.67,2.64,0000 0000 0000 0000 000000
2017-07-10 12:32:02,0.02,0.07,0.00,26.90,30.52,32.91,13.62,44.13,1010.29,2019.97,3500.11,3050.88,3498.49,600.08,584.70,2.69,0000 0000 0000 0000 000000
2017-07-10 12:37:03,0.02,0.07,0.00,26.90,30.54,32.92,13.62,44.20,1010.27,2019.91,3499.74,3050.11,3497.99,600.05,584.62,2.74,0000 0000 0000 0000 000000
2017-07-10 12:42:05,-0.01,0.07,0.00,26.91,30.56,32.94,13.58,44.24,1010.23,2019.74,3499.09,3049.99,3497.48,599.97,584.55,2.79,0000 0000 0000 0000 000000
2017-07-10 12:47:06,-0.01,0.07,0.00,26.92,30.58,32.96,13.63,44.16,1010.23,2019.23,3498.77,3049.43,3497.00,600.15,584.75,2.84,0000 0000 0000 0000 000000
2017-07-10 12:52:08,0.01,0.07,0.00,26.92,30.60,32.97,13.60,44.22,1010.15,2019.10,3498.10,3049.03,3496.49,600.01,584.55,2.90,0000 0000 0000 0000 000000
2017-07-10 12:57:09,0.01,0.07,0.00,26.93,30.62,33.00,13.58,44.16,1010.10,2019.06,3497.89,3048.98,3496.01,600.11,584.57,2.95,0000 0000 0000 0000 000000